Location: Lobos
(35.3000°S, 59.0940°W)
Time: 06:24:48
(UTC-03:00)

STARLINK-1767 - Pass Details

Date: 21 September 2020
Orbit: 538 x 541 km, 53.0° (Epoch: 22 October)

Event Time Altitude Azimuth Distance (km) Brightness Sun altitude
Rises 20:40:56 0° 220° (SW) 2,573 8.0 -22.6°
Reaches altitude 10° 20:43:08 10° 214° (SSW) 1,735 6.8 -23.1°
Enters shadow 20:46:09 39° 174° (S) 810 4.5 -23.6°
